Meknes, Morocco

11:41 AM WET on February 28, 2017 (GMT +0000)
Meknes

Weather History for GMFM - October, 2013

Change the Weather History Date:

Sunday, October 20, 2013

  Actual Average (GMFF) Record (GMFF)
Temperature  
Mean Temperature 66 °F -  
Max Temperature 78 °F 70 °F 99 °F (2014)
Min Temperature 54 °F 50 °F 37 °F (1998)
Cooling Degree Days 1    
Growing Degree Days 16 (Base 50)    
Moisture  
Dew Point 54 °F    
Average Humidity 64    
Maximum Humidity 88    
Minimum Humidity 34    
Precipitation  
Precipitation 0.00 in 0.09 in - ()
Sea Level Pressure  
Sea Level Pressure 30.12 in    
Wind  
Wind Speed 2 mph ()    
Max Wind Speed 8 mph    
Max Gust Speed -    
Visibility 6.1 miles    
Events      
Averages and records for this station are not official NWS values.
T = Trace of Precipitation, MM = Missing Value Source: Averaged Metar Reports

Daily Weather History Graph

Daily Weather History Graph

Search for Another Location

Airport or City:

Trip Planner

Search our weather history database for the weather conditions in past years. The results will help you decide how hot, cold, wet, or windy it might be!

Date:

Astronomy

Oct. 20, 2013 Rise Set
Actual Time 7:31 AM WEST 6:42 PM WEST
Civil Twilight 7:05 AM WEST 7:07 PM WEST
Nautical Twilight 6:36 AM WEST 7:36 PM WEST
Astronomical Twilight 6:07 AM WEST 8:05 PM WEST
Moon 7:46 PM WEST (10/20) 8:50 AM WEST (10/20)
Length of Visible Light 12h 01m
Length of Day
11h 10m
Full, 98% of the Moon is Illuminated
Oct 20
Full
Oct 27
Last Quarter
Nov 3
New
Nov 10
First Quarter
Nov 17
Full

Hourly Weather History & Observations

Time (WEST) Temp. Dew Point Humidity Pressure Visibility Wind Dir Wind Speed Gust Speed Precip Events Conditions
12:00 AM 66.2 °F 50.0 °F 56% 30.18 in - Calm Calm - N/A   Clear
1:00 AM 62 °F 55 °F 71% 30.12 in 6 mi Calm Calm - -  
1:00 AM 62.6 °F 55.4 °F 77% 30.15 in - Calm Calm - N/A   Clear
2:00 AM 59.0 °F 55.4 °F 88% 30.15 in - Calm Calm - N/A   Clear
3:00 AM 59.0 °F 53.6 °F 82% 30.15 in - Calm Calm - N/A   Clear
4:00 AM 57 °F 51 °F 72% 30.11 in 6 mi Calm Calm - -  
4:00 AM 57.2 °F 50.0 °F 77% 30.12 in - Calm Calm - N/A   Clear
5:00 AM 57.2 °F 50.0 °F 77% 30.12 in - Calm Calm - N/A   Clear
6:00 AM 55.4 °F 50.0 °F 82% 30.12 in - Calm Calm - N/A   Clear
7:00 AM 56 °F 50 °F 73% 30.12 in 6 mi South 2.3 mph - -  
7:00 AM 55.4 °F 50.0 °F 82% 30.12 in - South 2.3 mph - N/A   Clear
8:00 AM 55.4 °F 50.0 °F 82% 30.15 in - SSW 2.3 mph - N/A   Clear
9:00 AM 60.8 °F 53.6 °F 77% 30.18 in - South 2.3 mph - N/A   Clear
10:00 AM 65 °F 56 °F 64% 30.13 in 6 mi SSE 2.3 mph - -   Scattered Clouds
10:00 AM 66.2 °F 55.4 °F 68% 30.18 in - SSE 2.3 mph - N/A   Clear
11:00 AM 69.8 °F 55.4 °F 60% 30.18 in - NNE 2.3 mph - N/A   Clear
12:00 PM 73.4 °F 55.4 °F 53% 30.18 in - NE 3.5 mph - N/A   Clear
1:00 PM 74 °F 55 °F 41% 30.07 in 6 mi NNW 4.6 mph - -   Scattered Clouds
1:00 PM 75.2 °F 55.4 °F 50% 30.15 in 6.2 mi NNW 4.6 mph - N/A   Partly Cloudy
2:00 PM 77.0 °F 53.6 °F 44% 30.15 in 6.2 mi NNW 2.3 mph - N/A   Partly Cloudy
3:00 PM 77.0 °F 55.4 °F 47% 30.09 in 6.2 mi NNW 8.1 mph - N/A   Partly Cloudy
4:00 PM 78 °F 54 °F 34% 30.01 in 6 mi NNW 5.8 mph - -   Partly Cloudy
4:00 PM 78.8 °F 55.4 °F 44% 30.09 in 6.2 mi NNW 5.8 mph - N/A   Scattered Clouds
5:00 PM 77.0 °F 55.4 °F 47% 30.09 in 6.2 mi West 6.9 mph - N/A   Scattered Clouds
6:00 PM 75.2 °F 55.4 °F 50% 30.09 in 6.2 mi NW 6.9 mph - N/A   Scattered Clouds
7:00 PM 73 °F 57 °F 46% 30.03 in 6 mi NNW 5.8 mph - -   Scattered Clouds
7:00 PM 73.4 °F 57.2 °F 57% 30.09 in 6.2 mi NNW 5.8 mph - N/A   Mostly Cloudy
8:00 PM 69.8 °F 57.2 °F 64% 30.12 in 6.2 mi NNW 5.8 mph - N/A   Scattered Clouds
9:00 PM 68.0 °F 57.2 °F 68% 30.12 in 6.2 mi NW 5.8 mph - N/A   Partly Cloudy
10:00 PM 65 °F 56 °F 64% 30.09 in 6 mi WNW 5.8 mph - -   Clear
10:00 PM 66.2 °F 55.4 °F 68% 30.15 in - WNW 5.8 mph - N/A   Clear
11:00 PM 66.2 °F 55.4 °F 68% 30.15 in - WNW 3.5 mph - N/A   Clear